[[{"header":{"parameterUnit":"m.s-1","parameterCategory":1,"la1":30.2991,"la2":30.254,"lo1":-89.0895,"lo2":-89.0444,"dy":0.0017,"dx":0.0017,"nx":28,"ny":28,"refTime":"2025-02-08T09:00:00:Z","depth":0,"parameterNumber":2,"parameterNumberName":"U-component_of_WINDS"},"data":[0,0,0,0,0,0,0,0,0,0,0,0,0,0,0,0,0,0,0,0,0,0,0,0,0,0,0,0,0,0,0,0,0,0,0,0,0,0,0,0,0,0,0,0,0,0,0,0,0,0,0,0,0,0,0,0,0,0,-0.493,-0.4931,0,-0.4995,-0.4996,-0.4997,-0.5055,-0.5055,-0.5056,-0.5057,-0.5123,-0.5124,-0.5126,0,0,0,0,0,0,0,0,0,0,0,0,0,-0.4857,-0.4858,-0.493,-0.4931,-0.4932,-0.4995,-0.4996,-0.4997,-0.5054,-0.5055,-0.5056,-0.5057,-0.5123,-0.5124,-0.5126,0,0,0,0,0,0,0,0,0,0,0,0,0,-0.4902,-0.4858,-0.493,-0.4968,-0.4972,-0.4995,-0.4996,-0.4997,-0.5054,-0.5055,-0.5056,-0.5057,-0.5122,-0.5124,-0.5126,-0.5116,0,0,-0.5131,-0.5132,0,0,0,0,0,0,0,0,-0.4899,-0.4905,-0.4962,-0.4966,-0.497,-0.5018,-0.4995,-0.5037,-0.5054,-0.5023,-0.5057,-0.5058,-0.5087,-0.5092,-0.5102,-0.5119,-0.5122,-0.5131,-0.5132,-0.5133,-0.5134,0,0,0,0,0,0,0,-0.4896,-0.4902,-0.4956,-0.4963,-0.4968,-0.4982,-0.499,-0.5003,-0.5049,-0.5026,-0.503,-0.5037,-0.509,-0.51,-0.5104,-0.5123,-0.5131,-0.5133,-0.5134,-0.5134,-0.5137,-0.5136,0,0,0,0,0,0,-0.4887,-0.4899,-0.4954,-0.4958,-0.4937,-0.4983,-0.4991,-0.5002,-0.5049,-0.5057,-0.5036,-0.504,-0.5097,-0.5102,-0.5107,-0.5099,-0.5133,-0.5135,-0.5136,-0.5138,-0.5137,-0.5136,0,0,0,0,0,0,-0.4885,-0.4892,-0.4951,-0.493,-0.4939,-0.4983,-0.4994,-0.5002,-0.5013,-0.5057,-0.5065,-0.5038,-0.5098,-0.5104,-0.5114,-0.5102,-0.5135,-0.5137,-0.5139,-0.5138,-0.5136,-0.5083,0,0,0,0,0,0,-0.4883,-0.4891,-0.4887,-0.4929,-0.494,-0.4957,-0.4993,-0.5003,-0.5016,-0.5021,-0.5061,-0.5068,-0.5099,-0.5111,-0.5115,-0.5105,-0.5138,-0.514,-0.5139,-0.5137,-0.5086,-0.508,-0.5075,0,0,0,0,0,-0.488,-0.4869,-0.4886,-0.4893,-0.4936,-0.4956,-0.4962,-0.4997,-0.5014,-0.5011,-0.504,-0.5067,-0.5103,-0.5111,-0.5117,-0.5107,-0.5141,-0.5139,-0.5137,-0.5089,-0.5081,-0.5075,0,0,0,0,0,0,-0.4824,-0.4876,-0.4895,-0.4898,-0.4922,-0.4966,-0.4963,-0.4988,-0.5008,-0.5012,-0.5055,-0.5064,-0.5069,-0.5089,-0.5098,-0.5101,-0.5126,-0.5125,-0.5087,-0.508,-0.5075,-0.507,-0.514,0,0,0,0,0,-0.4812,-0.4824,-0.4868,-0.4866,-0.4878,-0.4918,-0.4928,-0.4953,-0.498,-0.4991,-0.502,-0.5045,-0.5063,-0.5073,-0.5091,-0.509,-0.51,-0.5086,-0.508,-0.5075,-0.5074,-0.5075,-0.507,-0.5129,-0.5129,-0.5129,0,0,-0.4788,-0.4817,-0.4822,-0.4856,-0.4878,-0.4889,-0.4926,-0.4937,-0.4946,-0.4993,-0.5003,-0.5026,-0.5057,-0.5061,-0.5064,-0.5078,-0.506,-0.5073,-0.5068,-0.5069,-0.5072,-0.5067,-0.5062,-0.5127,-0.5128,-0.5128,0,0,-0.4748,-0.4772,-0.4773,-0.4794,-0.4827,-0.4854,-0.4854,-0.4894,-0.4911,-0.4922,-0.4958,-0.497,-0.4998,-0.5019,-0.5033,-0.5003,-0.5029,-0.5008,-0.4978,-0.4979,-0.4974,-0.4971,-0.496,-0.4956,-0.5006,-0.5006,-0.5006,0,-0.4713,-0.4732,-0.477,-0.4779,-0.4793,-0.4836,-0.4838,-0.4857,-0.4893,-0.4902,-0.4917,-0.4954,-0.4978,-0.4988,-0.4981,-0.4991,-0.4993,-0.5003,-0.4972,-0.4968,-0.4965,-0.4956,-0.4952,-0.5003,-0.5003,-0.5004,-0.5004,0,-0.4688,-0.47,-0.4697,-0.4731,-0.4745,-0.475,-0.479,-0.4799,-0.4824,-0.4849,-0.4861,-0.4891,-0.4917,-0.4921,-0.4945,-0.4935,-0.4942,-0.4964,-0.499,-0.4956,-0.4948,-0.4945,-0.4999,-0.5,-0.5001,-0.5002,0,0,-0.4614,-0.467,-0.4669,-0.4685,-0.4725,-0.4735,-0.4743,-0.4767,-0.4775,-0.4799,-0.4807,-0.483,-0.4851,-0.4867,-0.4894,-0.4894,-0.4869,-0.4916,-0.4918,-0.4906,-0.486,-0.4843,-0.4838,-0.4887,-0.4886,-0.4886,-0.4857,0,-0.4582,-0.4597,-0.4632,-0.4636,-0.4648,-0.469,-0.4696,-0.4722,-0.4746,-0.476,-0.4788,-0.4804,-0.4829,-0.484,-0.4842,-0.4871,-0.486,-0.4874,-0.4894,-0.4894,-0.4885,-0.4834,-0.4816,-0.4788,-0.4854,-0.4854,-0.4853,0,-0.4545,-0.4567,-0.4572,-0.4612,-0.4618,-0.4623,-0.4649,-0.4662,-0.4692,-0.471,-0.4728,-0.4758,-0.4769,-0.4793,-0.4808,-0.4817,-0.4827,-0.4843,-0.4843,-0.4846,-0.4871,-0.4835,-0.478,-0.4775,-0.4849,-0.4849,-0.4849,0,-0.4491,-0.4522,-0.4529,-0.4542,-0.4588,-0.4591,-0.4611,-0.4641,-0.4654,-0.4677,-0.4686,-0.471,-0.4723,-0.4741,-0.4776,-0.479,-0.4787,-0.4815,-0.4803,-0.4802,-0.48,-0.4799,-0.4745,-0.4807,-0.4807,-0.4807,-0.4807,0,-0.4451,-0.4453,-0.4506,-0.451,-0.4514,-0.4554,-0.4557,-0.458,-0.4607,-0.4618,-0.4655,-0.4664,-0.471,-0.4725,-0.4753,-0.4761,-0.4767,-0.4782,-0.4789,-0.4778,-0.4776,-0.4786,-0.4788,-0.4806,-0.4806,-0.4806,-0.4807,0,-0.4391,-0.4427,-0.4437,-0.4481,-0.4491,-0.4492,-0.4529,-0.4536,-0.4563,-0.4575,-0.458,-0.4623,-0.4642,-0.4679,-0.4708,-0.4727,-0.473,-0.4743,-0.4719,-0.4724,-0.471,-0.4711,-0.4659,-0.4654,-0.4719,-0.4718,-0.4718,0,-0.4363,-0.4365,-0.4409,-0.4418,-0.4436,-0.4451,-0.4464,-0.4504,-0.4517,-0.4551,-0.4553,-0.4575,-0.4595,-0.4624,-0.4657,-0.468,-0.4694,-0.4674,-0.4698,-0.4687,-0.4694,-0.4693,-0.4694,-0.4669,-0.4668,-0.4667,-0.4667,0,-0.4309,-0.4327,-0.4344,-0.4368,-0.4383,-0.4404,-0.4427,-0.4432,-0.4478,-0.449,-0.451,-0.4525,-0.4556,-0.4577,-0.4605,-0.4626,-0.4654,-0.4659,-0.4658,-0.4646,-0.4633,-0.464,-0.4705,-0.466,-0.4661,-0.4661,-0.4661,-0.4662,-0.4265,-0.4269,-0.43,-0.4318,-0.434,-0.436,-0.4369,-0.4397,-0.4414,-0.4441,-0.4464,-0.4482,-0.4513,-0.4553,-0.4572,-0.4587,-0.4601,-0.4598,-0.4598,-0.4597,-0.4592,-0.463,-0.4592,-0.4593,-0.4593,-0.4593,-0.4593,0,-0.4213,-0.4235,-0.4252,-0.4283,-0.4297,-0.4322,-0.4349,-0.436,-0.4375,-0.4401,-0.442,-0.4443,-0.4464,-0.4499,-0.4524,-0.4529,-0.4542,-0.4534,-0.4534,-0.4538,-0.4579,-0.4578,-0.4523,-0.4523,-0.4523,-0.4523,-0.4523,-0.4523,-0.4188,-0.4196,-0.4218,-0.4237,-0.426,-0.4277,-0.429,-0.431,-0.4331,-0.4355,-0.4373,-0.4396,-0.4426,-0.4453,-0.4473,-0.4483,-0.4491,-0.4478,-0.4492,-0.4529,-0.4535,-0.4542,-0.4541,-0.4479,-0.4479,-0.445,-0.445,-0.445]},{"header":{"parameterUnit":"m.s-1","parameterCategory":1,"la1":30.2991,"la2":30.254,"lo1":-89.0895,"lo2":-89.0444,"dy":0.0017,"dx":0.0017,"nx":28,"ny":28,"refTime":"2025-02-08T09:00:00:Z","depth":0,"parameterNumber":3,"parameterNumberName":"V-component_of_WINDS"},"data":[0,0,0,0,0,0,0,0,0,0,0,0,0,0,0,0,0,0,0,0,0,0,0,0,0,0,0,0,0,0,0,0,0,0,0,0,0,0,0,0,0,0,0,0,0,0,0,0,0,0,0,0,0,0,0,0,0,0,3.6259,3.6259,0,3.6266,3.6266,3.6266,3.6229,3.6228,3.6227,3.6226,3.6232,3.6233,3.6234,0,0,0,0,0,0,0,0,0,0,0,0,0,3.621,3.6211,3.6259,3.6259,3.6259,3.6266,3.6266,3.6266,3.6229,3.6228,3.6227,3.6225,3.6232,3.6233,3.6234,0,0,0,0,0,0,0,0,0,0,0,0,0,3.6226,3.6212,3.6259,3.6241,3.624,3.6266,3.6266,3.6267,3.6229,3.6228,3.6226,3.6225,3.6231,3.6233,3.6235,3.6278,0,0,3.624,3.6241,0,0,0,0,0,0,0,0,3.6225,3.6228,3.6244,3.6242,3.6241,3.6245,3.6252,3.627,3.623,3.6233,3.6226,3.6224,3.6238,3.6239,3.6244,3.6278,3.6279,3.624,3.6241,3.6242,3.6243,0,0,0,0,0,0,0,3.6224,3.6227,3.6262,3.6244,3.6242,3.6232,3.6233,3.6255,3.6244,3.6233,3.623,3.6232,3.6236,3.6242,3.6244,3.6279,3.624,3.6242,3.6243,3.6244,3.635,3.6351,0,0,0,0,0,0,3.6226,3.6227,3.6261,3.6262,3.6229,3.6235,3.6235,3.6245,3.6244,3.6242,3.6233,3.623,3.624,3.6242,3.6244,3.6295,3.6242,3.6244,3.6245,3.6348,3.635,3.6352,0,0,0,0,0,0,3.6225,3.6229,3.6261,3.6244,3.6247,3.6237,3.6249,3.6246,3.6252,3.6244,3.6242,3.6241,3.6239,3.6241,3.627,3.6295,3.6244,3.6246,3.6346,3.6349,3.6351,3.6397,0,0,0,0,0,0,3.6223,3.6229,3.6246,3.6244,3.6248,3.6288,3.625,3.6248,3.6255,3.6251,3.6251,3.6249,3.6238,3.6268,3.6272,3.6296,3.6247,3.6344,3.6347,3.635,3.6394,3.6401,3.6408,0,0,0,0,0,3.6222,3.6258,3.6247,3.6251,3.6269,3.6289,3.6291,3.6278,3.6257,3.6274,3.6269,3.6249,3.6291,3.6271,3.6275,3.63,3.6342,3.6346,3.635,3.639,3.64,3.6408,0,0,0,0,0,0,3.6262,3.6257,3.6245,3.6282,3.6286,3.6283,3.6303,3.6288,3.6298,3.6294,3.6276,3.6276,3.6308,3.6307,3.6284,3.6343,3.6313,3.6318,3.6342,3.6351,3.6358,3.6358,3.6249,0,0,0,0,0,3.6275,3.6293,3.6287,3.632,3.6323,3.6313,3.6322,3.6311,3.6314,3.6316,3.6313,3.6317,3.6331,3.6341,3.6353,3.6393,3.6393,3.6413,3.642,3.6426,3.643,3.6452,3.6461,3.6365,3.6365,3.6365,0,0,3.6302,3.6302,3.6314,3.6328,3.6331,3.6349,3.6315,3.6336,3.6349,3.6319,3.6346,3.6345,3.6348,3.6383,3.6398,3.6383,3.6457,3.6431,3.6435,3.6437,3.6457,3.6466,3.6474,3.6368,3.6367,3.6367,0,0,3.6361,3.6363,3.6391,3.6394,3.6398,3.6391,3.6398,3.6397,3.6395,3.6422,3.64,3.6416,3.644,3.6444,3.6449,3.651,3.6492,3.6514,3.6551,3.6573,3.658,3.6587,3.6609,3.6617,3.6519,3.6519,3.6519,0,3.6394,3.6422,3.6407,3.6429,3.6437,3.6411,3.6439,3.6442,3.645,3.6456,3.6439,3.6469,3.647,3.6505,3.652,3.6525,3.6532,3.6514,3.658,3.6587,3.6593,3.6614,3.6622,3.6521,3.6521,3.6521,3.6521,0,3.6463,3.6482,3.6504,3.6513,3.6523,3.6548,3.6536,3.6548,3.6536,3.6531,3.6559,3.6558,3.6571,3.6578,3.6566,3.6612,3.6603,3.6583,3.6553,3.6605,3.6624,3.6632,3.6525,3.6524,3.6524,3.6523,0,0,3.6547,3.6548,3.6557,3.6561,3.6564,3.6578,3.6602,3.6615,3.6625,3.6631,3.6651,3.6672,3.6655,3.6661,3.6649,3.6667,3.6717,3.6646,3.6646,3.666,3.6768,3.6783,3.6793,3.6705,3.6706,3.6707,3.6768,0,3.6606,3.6648,3.6635,3.6677,3.6695,3.6671,3.6692,3.6696,3.6691,3.6705,3.67,3.6716,3.6691,3.6695,3.6712,3.6707,3.6738,3.6702,3.6723,3.6724,3.6724,3.6803,3.6819,3.6876,3.6775,3.6776,3.6777,0,3.668,3.669,3.6734,3.6735,3.6742,3.6761,3.6772,3.6786,3.6789,3.6785,3.6792,3.6777,3.68,3.677,3.6802,3.6778,3.6785,3.6784,3.6786,3.6788,3.6754,3.6807,3.6893,3.6902,3.6789,3.6788,3.6787,0,3.6738,3.6763,3.6793,3.6797,3.6798,3.6812,3.6813,3.6815,3.6824,3.6833,3.6838,3.685,3.6856,3.6866,3.6854,3.6833,3.6888,3.6856,3.6885,3.6885,3.6898,3.6898,3.6987,3.6902,3.6902,3.6902,3.6902,0,3.6806,3.6834,3.6819,3.6838,3.6868,3.6853,3.6884,3.6882,3.6884,3.6902,3.6881,3.6897,3.6881,3.6896,3.6886,3.6915,3.6917,3.6915,3.6912,3.6917,3.6918,3.6922,3.6918,3.6904,3.6903,3.6903,3.6903,0,3.6876,3.6868,3.6899,3.6897,3.6898,3.6921,3.6919,3.6936,3.693,3.6953,3.6957,3.6948,3.6965,3.6954,3.697,3.6964,3.7001,3.6992,3.7,3.6998,3.7028,3.7026,3.7124,3.7137,3.7043,3.7044,3.7044,0,3.692,3.6942,3.6943,3.6954,3.6956,3.6973,3.6982,3.6968,3.6978,3.6984,3.7,3.7015,3.7027,3.7054,3.7049,3.7062,3.7054,3.7087,3.7055,3.706,3.7055,3.7054,3.7057,3.7094,3.7095,3.7096,3.7097,0,3.7,3.6994,3.7008,3.7021,3.7033,3.7042,3.7049,3.7059,3.7044,3.7057,3.7074,3.7083,3.71,3.7115,3.7126,3.7126,3.711,3.7107,3.7114,3.712,3.7124,3.7123,3.7019,3.7105,3.7104,3.7103,3.7103,3.7103,3.7059,3.7077,3.7081,3.7097,3.7102,3.7109,3.7125,3.7122,3.7136,3.7149,3.714,3.716,3.7164,3.7176,3.7179,3.7195,3.7181,3.7191,3.7194,3.7197,3.7202,3.7121,3.7196,3.7196,3.7196,3.7196,3.7195,0,3.7138,3.7139,3.7155,3.7166,3.7179,3.7162,3.7169,3.7181,3.72,3.7205,3.7217,3.7237,3.7251,3.7247,3.726,3.7274,3.7266,3.7278,3.7277,3.7278,3.7213,3.7206,3.7284,3.7284,3.7284,3.7284,3.7284,3.7284,3.7181,3.7211,3.7206,3.7238,3.7238,3.7259,3.7265,3.7272,3.7276,3.7299,3.7312,3.7309,3.731,3.7323,3.7336,3.7334,3.7341,3.7355,3.7351,3.7291,3.7282,3.7274,3.7267,3.7356,3.7357,3.7414,3.7415,3.7415]}]]